www.pogodaiklimat.ru

Погода и климат >> Архив погоды >> Парагвай >> Paraguari


ПОГОДА в Paraguari

  • Прогноз погоды в Paraguari
  • Монитор погоды в Paraguari
  • Климат города

АРХИВ ПОГОДЫ в Paraguari

Время (UTC), дата Ветер
(напр.,м/с)
 
Видим.   Явления Облачность Т
(С)
Тd
(С)
f
(%)
Тe
(С)
Тes
(С)
Комфортность P
(гПа)
Po
(гПа)
Тmin
(С)
Tmax
(С)
R
(мм)
R24
(мм)
S
(см)
06 8.12 штиль 0 20 км ясно +19.8 +15.3 75 +22 +22 комфорт 1017.3 1003.7
09 8.12 штиль 0 20 км ясно +14.8 +13.3 91 +14 +14 1018.7 1004.8
12 8.12 В 1 20 км ясно +19.8 +14.9 73 +23 +33 комфорт 1020.0 1006.3 +14.8
15 8.12 штиль 0 20 км ясно +26.6 +11.7 39 +28 +57 опасность
солнечного
удара
1018.8 1005.4
18 8.12 штиль 0 20 км ясно +30.8 +14.7 38 +33 +55 опасность
солнечного
удара
1016.8 1003.7
21 8.12 штиль 0 20 км ясно +29.2 +15.7 44 +32 +36 душно 1015.8 1002.6
00 9.12 штиль 0 20 км ясно +25.8 +14.7 50 +28 +28 жарко 1014.1 1000.7 +30.8
03 9.12 штиль 0 20 км ясно +23.6 +14.4 56 +26 +26 жарко 1013.9 1000.4
06 9.12 штиль 0 20 км ясно +19.2 +15.6 80 +21 +21 комфорт 1014.7 1001.0
09 9.12 штиль 0 20 км ясно +18.0 +16.0 88 +18 +18 1015.2 1001.5
12 9.12 С 6 20 км ясно +26.8 +11.4 38 +28 +31 жарко 1015.3 1002.0 +18.0
15 9.12 С 8 20 км ясно +29.4 +13.7 38 +31 +35 жарко 1013.9 1000.7
18 9.12 С 3 20 км ясно +31.2 +14.5 36 +33 +47 жарко 1011.9 998.8
21 9.12 С 2 20 км ясно +30.0 +13.2 36 +31 +34 жарко 1011.1 998.0
00 10.12 штиль 0 20 км ясно +27.8 +15.1 46 +30 +30 жарко 1011.4 998.2
03 10.12 штиль 0 20 км ясно +25.8 +16.4 56 +29 +29 душно 1011.8 998.5
06 10.12 штиль 0 20 км ясно +23.8 +15.9 61 +27 +27 жарко 1012.2 998.8
09 10.12 С 1 20 км ясно +22.2 +16.8 71 +27 +27 душно 1012.7 999.2
12 10.12 С 4 20 км 5/0 1500 м
[Ac und]
+27.8 +13.0 40 +29 +33 жарко 1014.7 1001.4 +22.2
15 10.12 С 2 20 км ясно +30.2 +13.2 35 +31 +53 опасность
солнечного
удара
1015.0 1001.8
18 10.12 штиль 0 20 км ясно +32.6 +13.7 32 +34 +56 опасность
солнечного
удара
1013.7 1000.6
21 10.12 штиль 0 20 км 4/0 1500 м
[Ac und]
+31.8 +14.2 34 +33 +36 жарко 1011.9 998.9
00 11.12 штиль 0 20 км ясно +29.6 +17.4 48 +34 +34 очень
душно
1011.3 998.2 +34.8
03 11.12 штиль 0 20 км ясно +28.4 +16.8 49 +32 +32 душно 1011.4 998.2
06 11.12 штиль 0 20 км ясно +27.2 +17.5 55 +31 +31 душно 1011.8 998.5
09 11.12 С 1 20 км ясно +26.2 +17.8 60 +31 +31 очень
душно
1012.1 998.7
12 11.12 штиль 0 20 км 4/0 1500 м
[Ac und]
+28.8 +18.0 52 +33 +42 очень
душно
1013.4 1000.0 +26.2
15 11.12 С 3 20 км ясно +32.2 +18.2 43 +37 +54 опасность
солнечного
удара
1013.1 1000.0
18 11.12 С 4 20 км ясно +35.8 +19.4 38 +41 +52 опасность
перегрева
1011.6 998.7
21 11.12 штиль 0 20 км ясно +35.6 +19.5 39 +41 +45 опасность
перегрева
1010.6 997.7
00 12.12 штиль 0 20 км ясно +31.6 +20.1 51 +38 +38 очень
душно
1010.7 997.7 +36.4
03 12.12 штиль 0 20 км ясно +29.8 +19.4 54 +36 +36 очень
душно
1011.0 997.8
06 12.12 штиль 0 20 км ясно +28.6 +19.8 59 +35 +35 очень
душно
1012.6 999.4
09 12.12 штиль 0 20 км 8/0 1500 м
[Ac As]
+26.6 +17.6 58 +31 +31 душно 1013.9 1000.6
12 12.12 штиль 0 20 км 5/0 1500 м
[Ac As]
+30.0 +21.0 59 +38 +45 очень
душно
1014.0 1000.8 +26.6
15 12.12 штиль 0 20 км 8/0 1500 м
[Ac As]
+32.6 +23.2 58 +43 +56 опасность
перегрева
1014.5 1001.4
18 12.12 штиль 0 20 км 8/8 1200 м
[Cu med, cong]
+35.2 +23.6 51 +46 +51 опасность
перегрева
1012.4 999.5
21 12.12 Ю 1 20 км {дождь} 10/10 300 м
[Sc]
+20.8 +19.8 94 +27 +27 душно 1014.1 1000.5 2
00 13.12 штиль 0 15 км слабый дождь 10/10 300 м
[Sc]
+19.4 +18.7 96 +22 +22 комфорт 1014.7 1001.0 +35.2 1
03 13.12 штиль 0 20 км {дождь} ясно +19.8 +18.5 92 +22 +22 комфорт 1014.6 1001.0 0.0
06 13.12 штиль 0 20 км ясно +19.6 +18.6 94 +22 +22 комфорт 1015.0 1001.4
09 13.12 штиль 0 20 км ясно +19.4 +18.6 95 +22 +22 комфорт 1015.5 1001.8
12 13.12 С 1 20 км ясно +26.8 +21.2 71 +34 +44 очень
душно
1015.3 1002.0 +19.4 5
15 13.12 С 1 20 км ясно +30.8 +20.8 55 +38 +63 опасность
солнечного
удара
1012.4 999.3
18 13.12 штиль 0 20 км 4/4 1200 м
[Cu hum]
+34.8 +22.2 48 +44 +57 опасность
перегрева
1010.5 997.6
21 13.12 штиль 0 20 км 5/5 1200 м
[Cu hum]
+34.4 +23.7 54 +46 +48 опасность
перегрева
1009.4 996.5
00 14.12 штиль 0 20 км ясно +29.8 +22.7 66 +39 +39 очень
душно
1010.2 997.1 +34.8
03 14.12 штиль 0 20 км ясно +28.2 +22.0 69 +36 +36 очень
душно
1010.2 997.0
06 14.12 штиль 0 20 км ясно +27.6 +22.1 72 +36 +36 очень
душно
1010.0 996.7
09 14.12 С 3 20 км ясно +26.2 +21.4 75 +33 +33 очень
душно
1010.4 997.1
12 14.12 С 4 20 км ясно +29.8 +21.0 59 +37 +43 очень
душно
1010.5 997.4 +26.2
15 14.12 С 2 20 км 3/3 1200 м
[Cu hum]
+32.2 +21.7 54 +41 +55 опасность
перегрева
1011.2 998.2
18 14.12 С 1 20 км 5/5 1200 м
[Cu hum]
+35.4 +23.2 49 +45 +55 опасность
перегрева
1009.6 996.7
21 14.12 С 3 20 км ясно +34.8 +22.1 48 +44 +46 опасность
перегрева
1009.9 996.3

 

Местоположение метеостанции Paraguari (Парагвай): широта -25.63 долгота -57.13 высота над уровнем моря 116 м.

В архиве по умолчанию представлена погода в Paraguari за последнюю неделю. Архивные данные за месяц целиком и за предыдущие месяцы, начиная с января 2011 года, Вы можете получить, выбрав интересующий диапазон дат из раскрывающегося списка и нажав кнопку "Ввод!".


*Определитесь, кто Вы:
робот инопланетянин человек

Внимание! Время в таблицах - всемирное. Для получения местного времени необходимо прибавить поправку, которая в Paraguari равна -4 ч.

Смотрите также архив погоды в соседних городах и на ближайших метеорологических станциях:

Погода в Asuncion (Парагвай) (57 км)
Погода в Quyquyhat (Парагвай) (67 км)
Погода в Villarrica (Парагвай) (71 км)
Погода в Coronel Oviedo (Парагвай) (80 км)
Погода в Caazapa (Парагвай) (99 км)
Погода в San Juan Bautista Misiones (Парагвай) (115 км)
Погода в Formosa (Аргентина) (127 км)
Погода в San Estanislao (Парагвай) (130 км)
Погода в San Pedro (Парагвай) (175 км)
Погода в Pilar (Парагвай) (180 км)

Пояснения к столбцам:

Ветер - указаны скорость ветра в м/с - средняя за 10 мин, порывы в срок и между сроками (в фигурных скобках) и направление, откуда дует ветер: С - северный, СВ - северо-восточный, В - восточный, ЮВ - юго-восточный, Ю - южный, ЮЗ - юго-западный, З - западный, СЗ - северо-западный.
Видимость - горизонтальная дальность видимости в метрах или километрах. При видимости от 1 до 10 км при отсутствии осадков обычно наблюдается дымка, при ухудшении видимости до 1 км и менее - туман. В сухую погоду видимость может ухудшаться дымом, пылью или мглою.
Явления - указаны атмосферные явления, наблюдавшиеся в срок или в последний час перед сроком; фигурными скобками обозначены явления, наблюдавшиеся между сроками (за 1-3 часа до срока); квадратными скобками обозначены град или гололедные отложения с указанием их диаметра в мм.
Облачность - указаны через наклонную черту общая и нижняя облачность в баллах и высота нижней границы облаков в метрах; квадратными скобками обозначены формы облаков: Ci - перистые, Cs - перисто-слоистые, Cc - перисто-кучевые, Ac - высококучевые, As - высокослоистые, Sc - слоисто-кучевые, Ns - слоисто-дождевые, Cu - кучевые, Cb - кучево-дождевые. Подробнее классификацию облаков см. в Атласе облаков (PDF).
T - Температура воздуха - температура, измеренная на высоте 2 м над землей.
Td - Температура точки росы - температура, при понижении до которой содержащийся в воздухе водяной пар достигнет насыщения.
f - Относительная влажность воздуха - влажноcть воздуха, измеренная на высоте 2 м над землей.
Te - Эффективная температура - температура, которую ощущает одетый по сезону человек в тени. Характеристика душности погоды. При расчете учитывается влияние влажности воздуха и скорости ветра на теплоощущения человека.
Tes - Эффективная температура на солнце - температура, которую ощущает человек, с поправкой на солнечный нагрев. Характеристика знойности погоды. Зависит от высоты солнца над горизонтом, облачности и скорости ветра. Ночью, в пасмурную погоду, а также при ветре 12 м/с и более поправка равна нулю.
P - Атмосферное давление - приведенное к уровню моря атмосферное давление.
Po - Атмосферное давление - измеренное на уровне метеостанции атмосферное давление.
Tmin - Минимальная температура - минимум температуры воздуха на высоте 2 м над землей.
Tmax - Максимальная температура - максимум температуры воздуха на высоте 2 м над землей.
R - Количество осадков - Количество выпавших осадков за период времени, мм. При наведении курсора мыши на число - период времени, за который выпало указанное количество осадков.
R24 - Количество осадков - Количество выпавших осадков за 24 часа, мм.
S - Снежный покров - Высота снежного покрова, см. При наведении курсора мыши на число - состояние снежного покрова и степень покрытия местности в баллах.